Location: Rayville (historical)
(39.9992°N, 99.6815°W)
Time: 10:40:11
(UTC+00:00)

Meteor 1-10 Rocket - Pass Details

Date: 18 February 2020
Orbit: 835 x 911 km, 81.3° (Epoch: 08 April)

Event Time Altitude Azimuth Distance (km) Brightness Sun altitude
Rises 01:33:56 0° 350° (N) 3,445 7.5 -15.4°
Reaches altitude 10° 01:36:23 10° 350° (N) 2,494 6.7 -15.9°
Maximum altitude 01:42:03 88° 265° (W) 851 4.2 -17.0°
Drops below altitude 10° 01:47:35 10° 173° (S) 2,444 6.5 -18.1°
Sets 01:49:58 0° 173° (S) 3,370 7.3 -18.5°
